Year,Month,Day,Hour,Minute,Value (Times are PST for temperature in C)
2016,07,20,00,00,16.40
2016,07,20,00,01,16.40
2016,07,20,00,02,16.30
2016,07,20,00,03,16.30
2016,07,20,00,04,16.30
2016,07,20,00,05,16.30
2016,07,20,00,06,16.20
2016,07,20,00,07,16.20
2016,07,20,00,08,16.20
2016,07,20,00,09,16.20
2016,07,20,00,10,16.20
2016,07,20,00,11,16.20
2016,07,20,00,12,16.20
2016,07,20,00,13,16.10
2016,07,20,00,14,16.10
2016,07,20,00,15,16.10
2016,07,20,00,16,16.10
2016,07,20,00,17,16.10
2016,07,20,00,18,16.10
2016,07,20,00,19,16.10
2016,07,20,00,20,16.10
2016,07,20,00,21,16.10
2016,07,20,00,22,16.10
2016,07,20,00,23,16.00
2016,07,20,00,24,16.00
2016,07,20,00,25,16.00
2016,07,20,00,26,16.00
2016,07,20,00,27,16.00
2016,07,20,00,28,16.00
2016,07,20,00,29,15.90
2016,07,20,00,30,15.90
2016,07,20,00,31,15.90
2016,07,20,00,32,15.90
2016,07,20,00,33,15.90
2016,07,20,00,34,15.80
2016,07,20,00,35,15.80
2016,07,20,00,36,15.80
2016,07,20,00,37,15.70
2016,07,20,00,38,15.70
2016,07,20,00,39,15.60
2016,07,20,00,40,15.60
2016,07,20,00,41,15.50
2016,07,20,00,42,15.40
2016,07,20,00,43,15.40
2016,07,20,00,44,15.40
2016,07,20,00,45,15.30
2016,07,20,00,46,15.30
2016,07,20,00,47,15.20
2016,07,20,00,48,15.20
2016,07,20,00,49,15.10
2016,07,20,00,50,15.00
2016,07,20,00,51,15.00
2016,07,20,00,52,15.00
2016,07,20,00,53,15.00
2016,07,20,00,54,15.00
2016,07,20,00,55,15.00
2016,07,20,00,56,15.00
2016,07,20,00,57,15.00
2016,07,20,00,58,14.90
2016,07,20,00,59,14.80
2016,07,20,01,00,14.80
2016,07,20,01,01,14.80
2016,07,20,01,02,14.70
2016,07,20,01,03,14.70
2016,07,20,01,04,14.70
2016,07,20,01,05,14.70
2016,07,20,01,06,14.70
2016,07,20,01,07,14.70
2016,07,20,01,08,14.60
2016,07,20,01,09,14.60
2016,07,20,01,10,14.60
2016,07,20,01,11,14.50
2016,07,20,01,12,14.50
2016,07,20,01,13,14.40
2016,07,20,01,14,14.40
2016,07,20,01,15,14.40
2016,07,20,01,16,14.40
2016,07,20,01,17,14.40
2016,07,20,01,18,14.40
2016,07,20,01,19,14.30
2016,07,20,01,20,14.30
2016,07,20,01,21,14.30
2016,07,20,01,22,14.30
2016,07,20,01,23,14.30
2016,07,20,01,24,14.20
2016,07,20,01,25,14.20
2016,07,20,01,26,14.20
2016,07,20,01,27,14.20
2016,07,20,01,28,14.10
2016,07,20,01,29,14.10
2016,07,20,01,30,14.10
2016,07,20,01,31,14.10
2016,07,20,01,32,14.10
2016,07,20,01,33,14.10
2016,07,20,01,34,14.10
2016,07,20,01,35,14.00
2016,07,20,01,36,14.00
2016,07,20,01,37,14.00
2016,07,20,01,38,14.00
2016,07,20,01,39,13.90
2016,07,20,01,40,13.90
2016,07,20,01,41,13.90
2016,07,20,01,42,13.90
2016,07,20,01,43,13.90
2016,07,20,01,44,13.90
2016,07,20,01,45,13.80
2016,07,20,01,46,13.80
2016,07,20,01,47,13.80
2016,07,20,01,48,13.80
2016,07,20,01,49,13.80
2016,07,20,01,50,13.80
2016,07,20,01,51,13.80
2016,07,20,01,52,13.80
2016,07,20,01,53,13.80
2016,07,20,01,54,13.70
2016,07,20,01,55,13.70
2016,07,20,01,56,13.70
2016,07,20,01,57,13.70
2016,07,20,01,58,13.70
2016,07,20,01,59,13.60
2016,07,20,02,00,13.60
2016,07,20,02,01,13.60
2016,07,20,02,02,13.60
2016,07,20,02,03,13.60
2016,07,20,02,04,13.60
2016,07,20,02,05,13.50
2016,07,20,02,06,13.50
2016,07,20,02,07,13.50
2016,07,20,02,08,13.50
2016,07,20,02,09,13.50
2016,07,20,02,10,13.50
2016,07,20,02,11,13.40
2016,07,20,02,12,13.40
2016,07,20,02,13,13.40
2016,07,20,02,14,13.40
2016,07,20,02,15,13.40
2016,07,20,02,16,13.40
2016,07,20,02,17,13.30
2016,07,20,02,18,13.30
2016,07,20,02,19,13.30
2016,07,20,02,20,13.30
2016,07,20,02,21,13.30
2016,07,20,02,22,13.30
2016,07,20,02,23,13.30
2016,07,20,02,24,13.30
2016,07,20,02,25,13.30
2016,07,20,02,26,13.20
2016,07,20,02,27,13.20
2016,07,20,02,28,13.20
2016,07,20,02,29,13.20
2016,07,20,02,30,13.20
2016,07,20,02,31,13.20
2016,07,20,02,32,13.20
2016,07,20,02,33,13.20
2016,07,20,02,34,13.10
2016,07,20,02,35,13.10
2016,07,20,02,36,13.10
2016,07,20,02,37,13.10
2016,07,20,02,38,13.10
2016,07,20,02,39,13.10
2016,07,20,02,40,13.10
2016,07,20,02,41,13.00
2016,07,20,02,42,13.00
2016,07,20,02,43,13.00
2016,07,20,02,44,12.90
2016,07,20,02,45,12.90
2016,07,20,02,46,12.90
2016,07,20,02,47,12.90
2016,07,20,02,48,12.90
2016,07,20,02,49,12.90
2016,07,20,02,50,12.90
2016,07,20,02,51,12.90
2016,07,20,02,52,12.90
2016,07,20,02,53,12.90
2016,07,20,02,54,12.90
2016,07,20,02,55,12.90
2016,07,20,02,56,12.90
2016,07,20,02,57,12.90
2016,07,20,02,58,12.90
2016,07,20,02,59,12.90
2016,07,20,03,00,12.90
2016,07,20,03,01,12.90
2016,07,20,03,02,12.90
2016,07,20,03,03,12.90
2016,07,20,03,04,12.90
2016,07,20,03,05,12.90
2016,07,20,03,06,12.90
2016,07,20,03,07,12.80
2016,07,20,03,08,12.80
2016,07,20,03,09,12.80
2016,07,20,03,10,12.80
2016,07,20,03,11,12.80
2016,07,20,03,12,12.80
2016,07,20,03,13,12.80
2016,07,20,03,14,12.80
2016,07,20,03,15,12.80
2016,07,20,03,16,12.80
2016,07,20,03,17,12.80
2016,07,20,03,18,12.80
2016,07,20,03,19,12.80
2016,07,20,03,20,12.80
2016,07,20,03,21,12.80
2016,07,20,03,22,12.80
2016,07,20,03,23,12.80
2016,07,20,03,24,12.80
2016,07,20,03,25,12.80
2016,07,20,03,26,12.80
2016,07,20,03,27,12.80
2016,07,20,03,28,12.90
2016,07,20,03,29,13.00
2016,07,20,03,30,13.00
2016,07,20,03,31,13.10
2016,07,20,03,32,13.10
2016,07,20,03,33,13.10
2016,07,20,03,34,13.20
2016,07,20,03,35,13.20
2016,07,20,03,36,13.10
2016,07,20,03,37,13.10
2016,07,20,03,38,13.10
2016,07,20,03,39,13.10
2016,07,20,03,40,13.10
2016,07,20,03,41,13.10
2016,07,20,03,42,13.10
2016,07,20,03,43,13.10
2016,07,20,03,44,13.00
2016,07,20,03,45,13.00
2016,07,20,03,46,13.00
2016,07,20,03,47,12.90
2016,07,20,03,48,12.90
2016,07,20,03,49,12.90
2016,07,20,03,50,12.90
2016,07,20,03,51,12.90
2016,07,20,03,52,12.90
2016,07,20,03,53,12.90
2016,07,20,03,54,12.90
2016,07,20,03,55,12.90
2016,07,20,03,56,12.90
2016,07,20,03,57,12.90
2016,07,20,03,58,12.90
2016,07,20,03,59,12.90
2016,07,20,04,00,12.80
2016,07,20,04,01,12.80
2016,07,20,04,02,12.80
2016,07,20,04,03,12.80
2016,07,20,04,04,12.80
2016,07,20,04,05,12.80
2016,07,20,04,06,12.80
2016,07,20,04,07,12.80
2016,07,20,04,08,12.70
2016,07,20,04,09,12.70
2016,07,20,04,10,12.70
2016,07,20,04,11,12.70
2016,07,20,04,12,12.70
2016,07,20,04,13,12.60
2016,07,20,04,14,12.60
2016,07,20,04,15,12.60
2016,07,20,04,16,12.60
2016,07,20,04,17,12.60
2016,07,20,04,18,12.60
2016,07,20,04,19,12.60
2016,07,20,04,20,12.60
2016,07,20,04,21,12.60
2016,07,20,04,22,12.70
2016,07,20,04,23,12.60
2016,07,20,04,24,12.60
2016,07,20,04,25,12.60
2016,07,20,04,26,12.60
2016,07,20,04,27,12.60
2016,07,20,04,28,12.60
2016,07,20,04,29,12.60
2016,07,20,04,30,12.60
2016,07,20,04,31,12.60
2016,07,20,04,32,12.60
2016,07,20,04,33,12.60
2016,07,20,04,34,12.60
2016,07,20,04,35,12.50
2016,07,20,04,36,12.50
2016,07,20,04,37,12.50
2016,07,20,04,38,12.50
2016,07,20,04,39,12.50
2016,07,20,04,40,12.50
2016,07,20,04,41,12.50
2016,07,20,04,42,12.50
2016,07,20,04,43,12.50
2016,07,20,04,44,12.40
2016,07,20,04,45,12.40
2016,07,20,04,46,12.40
2016,07,20,04,47,12.40
2016,07,20,04,48,12.40
2016,07,20,04,49,12.40
2016,07,20,04,50,12.40
2016,07,20,04,51,12.40
2016,07,20,04,52,12.40
2016,07,20,04,53,12.40
2016,07,20,04,54,12.40
2016,07,20,04,55,12.40
2016,07,20,04,56,12.40
2016,07,20,04,57,12.30
2016,07,20,04,58,12.30
2016,07,20,04,59,12.30
2016,07,20,05,00,12.30
2016,07,20,05,01,12.30
2016,07,20,05,02,12.30
2016,07,20,05,03,12.30
2016,07,20,05,04,12.30
2016,07,20,05,05,12.30
2016,07,20,05,06,12.30
2016,07,20,05,07,12.30
2016,07,20,05,08,12.20
2016,07,20,05,09,12.20
2016,07,20,05,10,12.20
2016,07,20,05,11,12.20
2016,07,20,05,12,12.20
2016,07,20,05,13,12.20
2016,07,20,05,14,12.20
2016,07,20,05,15,12.20
2016,07,20,05,16,12.20
2016,07,20,05,17,12.20
2016,07,20,05,18,12.20
2016,07,20,05,19,12.20
2016,07,20,05,20,12.20
2016,07,20,05,21,12.20
2016,07,20,05,22,12.20
2016,07,20,05,23,12.20
2016,07,20,05,24,12.20
2016,07,20,05,25,12.20
2016,07,20,05,26,12.20
2016,07,20,05,27,12.20
2016,07,20,05,28,12.20
2016,07,20,05,29,12.20
2016,07,20,05,30,12.20
2016,07,20,05,31,12.20
2016,07,20,05,32,12.20
2016,07,20,05,33,12.20
2016,07,20,05,34,12.20
2016,07,20,05,35,12.20
2016,07,20,05,36,12.20
2016,07,20,05,37,12.20
2016,07,20,05,38,12.20
2016,07,20,05,39,12.20
2016,07,20,05,40,12.20
2016,07,20,05,41,12.20
2016,07,20,05,42,12.20
2016,07,20,05,43,12.20
2016,07,20,05,44,12.10
2016,07,20,05,45,12.10
2016,07,20,05,46,12.10
2016,07,20,05,47,12.10
2016,07,20,05,48,12.10
2016,07,20,05,49,12.10
2016,07,20,05,50,12.10
2016,07,20,05,51,12.10
2016,07,20,05,52,12.10
2016,07,20,05,53,12.10
2016,07,20,05,54,12.10
2016,07,20,05,55,12.00
2016,07,20,05,56,12.00
2016,07,20,05,57,12.00
2016,07,20,05,58,12.00
2016,07,20,05,59,12.00
2016,07,20,06,00,12.00
2016,07,20,06,01,12.00
2016,07,20,06,02,12.00
2016,07,20,06,03,12.00
2016,07,20,06,04,12.00
2016,07,20,06,05,12.00
2016,07,20,06,06,12.00
2016,07,20,06,07,12.00
2016,07,20,06,08,12.00
2016,07,20,06,09,12.10
2016,07,20,06,10,12.10
2016,07,20,06,11,12.10
2016,07,20,06,12,12.10
2016,07,20,06,13,12.10
2016,07,20,06,14,12.10
2016,07,20,06,15,12.20
2016,07,20,06,16,12.20
2016,07,20,06,17,12.20
2016,07,20,06,18,12.20
2016,07,20,06,19,12.30
2016,07,20,06,20,12.30
2016,07,20,06,21,12.40
2016,07,20,06,22,12.50
2016,07,20,06,23,12.50
2016,07,20,06,24,12.60
2016,07,20,06,25,12.70
2016,07,20,06,26,12.80
2016,07,20,06,27,12.80
2016,07,20,06,28,12.90
2016,07,20,06,29,13.00
2016,07,20,06,30,13.00
2016,07,20,06,31,13.10
2016,07,20,06,32,13.20
2016,07,20,06,33,13.20
2016,07,20,06,34,13.30
2016,07,20,06,35,13.40
2016,07,20,06,36,13.50
2016,07,20,06,37,13.50
2016,07,20,06,38,13.60
2016,07,20,06,39,13.70
2016,07,20,06,40,13.70
2016,07,20,06,41,13.80
2016,07,20,06,42,13.80
2016,07,20,06,43,13.90
2016,07,20,06,44,14.00
2016,07,20,06,45,14.00
2016,07,20,06,46,14.00
2016,07,20,06,47,14.10
2016,07,20,06,48,14.10
2016,07,20,06,49,14.10
2016,07,20,06,50,14.20
2016,07,20,06,51,14.20
2016,07,20,06,52,14.20
2016,07,20,06,53,14.20
2016,07,20,06,54,14.20
2016,07,20,06,55,14.30
2016,07,20,06,56,14.30
2016,07,20,06,57,14.30
2016,07,20,06,58,14.30
2016,07,20,06,59,14.30
2016,07,20,07,00,14.30
2016,07,20,07,01,14.40
2016,07,20,07,02,14.40
2016,07,20,07,03,14.40
2016,07,20,07,04,14.40
2016,07,20,07,05,14.40
2016,07,20,07,06,14.50
2016,07,20,07,07,14.50
2016,07,20,07,08,14.50
2016,07,20,07,09,14.50
2016,07,20,07,10,14.60
2016,07,20,07,11,14.60
2016,07,20,07,12,14.60
2016,07,20,07,13,14.70
2016,07,20,07,14,14.70
2016,07,20,07,15,14.70
2016,07,20,07,16,14.70
2016,07,20,07,17,14.80
2016,07,20,07,18,14.80
2016,07,20,07,19,14.80
2016,07,20,07,20,14.90
2016,07,20,07,21,15.00
2016,07,20,07,22,15.00
2016,07,20,07,23,15.00
2016,07,20,07,24,15.00
2016,07,20,07,25,15.00
2016,07,20,07,26,15.00
2016,07,20,07,27,15.00
2016,07,20,07,28,15.10
2016,07,20,07,29,15.10
2016,07,20,07,30,15.20
2016,07,20,07,31,15.20
2016,07,20,07,32,15.20
2016,07,20,07,33,15.30
2016,07,20,07,34,15.30
2016,07,20,07,35,15.30
2016,07,20,07,36,15.30
2016,07,20,07,37,15.30
2016,07,20,07,38,15.40
2016,07,20,07,39,15.40
2016,07,20,07,40,15.40
2016,07,20,07,41,15.40
2016,07,20,07,42,15.50
2016,07,20,07,43,15.50
2016,07,20,07,44,15.60
2016,07,20,07,45,15.60
2016,07,20,07,46,15.70
2016,07,20,07,47,15.70
2016,07,20,07,48,15.70
2016,07,20,07,49,15.70
2016,07,20,07,50,15.70
2016,07,20,07,51,15.80
2016,07,20,07,52,15.80
2016,07,20,07,53,15.90
2016,07,20,07,54,15.90
2016,07,20,07,55,16.00
2016,07,20,07,56,16.00
2016,07,20,07,57,16.10
2016,07,20,07,58,16.10
2016,07,20,07,59,16.20
2016,07,20,08,00,16.20
2016,07,20,08,01,16.30
2016,07,20,08,02,16.30
2016,07,20,08,03,16.30
2016,07,20,08,04,16.30
2016,07,20,08,05,16.30
2016,07,20,08,06,16.30
2016,07,20,08,07,16.30
2016,07,20,08,08,16.30
2016,07,20,08,09,16.40
2016,07,20,08,10,16.40
2016,07,20,08,11,16.40
2016,07,20,08,12,16.40
2016,07,20,08,13,16.40
2016,07,20,08,14,16.50
2016,07,20,08,15,16.50
2016,07,20,08,16,16.60
2016,07,20,08,17,16.60
2016,07,20,08,18,16.60
2016,07,20,08,19,16.60
2016,07,20,08,20,16.60
2016,07,20,08,21,16.60
2016,07,20,08,22,16.60
2016,07,20,08,23,16.70
2016,07,20,08,24,16.70
2016,07,20,08,25,16.80
2016,07,20,08,26,16.80
2016,07,20,08,27,16.90
2016,07,20,08,28,17.00
2016,07,20,08,29,17.10
2016,07,20,08,30,17.20
2016,07,20,08,31,17.30
2016,07,20,08,32,17.40
2016,07,20,08,33,17.50
2016,07,20,08,34,17.50
2016,07,20,08,35,17.60
2016,07,20,08,36,17.70
2016,07,20,08,37,17.80
2016,07,20,08,38,17.90
2016,07,20,08,39,17.90
2016,07,20,08,40,18.00
2016,07,20,08,41,18.10
2016,07,20,08,42,18.20
2016,07,20,08,43,18.30
2016,07,20,08,44,18.40
2016,07,20,08,45,18.50
2016,07,20,08,46,18.60
2016,07,20,08,47,18.70
2016,07,20,08,48,18.80
2016,07,20,08,49,18.90
2016,07,20,08,50,18.90
2016,07,20,08,51,18.90
2016,07,20,08,52,19.00
2016,07,20,08,53,19.00
2016,07,20,08,54,19.10
2016,07,20,08,55,19.10
2016,07,20,08,56,19.20
2016,07,20,08,57,19.30
2016,07,20,08,58,19.40
2016,07,20,08,59,19.40
2016,07,20,09,00,19.50
2016,07,20,09,01,19.50
2016,07,20,09,02,19.50
2016,07,20,09,03,19.50
2016,07,20,09,04,19.60
2016,07,20,09,05,19.60
2016,07,20,09,06,19.60
2016,07,20,09,07,19.60
2016,07,20,09,08,19.70
2016,07,20,09,09,19.70
2016,07,20,09,10,19.70
2016,07,20,09,11,19.70
2016,07,20,09,12,19.70
2016,07,20,09,13,19.70
2016,07,20,09,14,19.70
2016,07,20,09,15,19.70
2016,07,20,09,16,19.70
2016,07,20,09,17,19.70
2016,07,20,09,18,19.70
2016,07,20,09,19,19.70
2016,07,20,09,20,19.70
2016,07,20,09,21,19.70
2016,07,20,09,22,19.70
2016,07,20,09,23,19.70
2016,07,20,09,24,19.70
2016,07,20,09,25,19.70
2016,07,20,09,26,19.70
2016,07,20,09,27,19.70
2016,07,20,09,28,19.70
2016,07,20,09,29,19.70
2016,07,20,09,30,19.70
2016,07,20,09,31,19.70
2016,07,20,09,32,19.70
2016,07,20,09,33,19.60
2016,07,20,09,34,19.50
2016,07,20,09,35,19.50
2016,07,20,09,36,19.50
2016,07,20,09,37,19.50
2016,07,20,09,38,19.50
2016,07,20,09,39,19.50
2016,07,20,09,40,19.50
2016,07,20,09,41,19.50
2016,07,20,09,42,19.50
2016,07,20,09,43,19.50
2016,07,20,09,44,19.50
2016,07,20,09,45,19.70
2016,07,20,09,46,19.70
2016,07,20,09,47,19.70
2016,07,20,09,48,19.70
2016,07,20,09,49,19.70
2016,07,20,09,50,19.70
2016,07,20,09,51,19.70
2016,07,20,09,52,19.70
2016,07,20,09,53,19.70
2016,07,20,09,54,19.70
2016,07,20,09,55,19.70
2016,07,20,09,56,19.70
2016,07,20,09,57,19.70
2016,07,20,09,58,19.60
2016,07,20,09,59,19.60
2016,07,20,10,00,19.50
2016,07,20,10,01,19.50
2016,07,20,10,02,19.40
2016,07,20,10,03,19.40
2016,07,20,10,04,19.30
2016,07,20,10,05,19.30
2016,07,20,10,06,19.20
2016,07,20,10,07,19.20
2016,07,20,10,08,19.20
2016,07,20,10,09,19.20
2016,07,20,10,10,19.30
2016,07,20,10,11,19.30
2016,07,20,10,12,19.30
2016,07,20,10,13,19.40
2016,07,20,10,14,19.40
2016,07,20,10,15,19.50
2016,07,20,10,16,19.60
2016,07,20,10,17,19.70
2016,07,20,10,18,19.70
2016,07,20,10,19,19.80
2016,07,20,10,20,19.90
2016,07,20,10,21,19.90
2016,07,20,10,22,20.00
2016,07,20,10,23,20.00
2016,07,20,10,24,20.00
2016,07,20,10,25,20.00
2016,07,20,10,26,20.00
2016,07,20,10,27,20.00
2016,07,20,10,28,20.00
2016,07,20,10,29,20.10
2016,07,20,10,30,20.10
2016,07,20,10,31,20.10
2016,07,20,10,32,20.10
2016,07,20,10,33,20.10
2016,07,20,10,34,20.00
2016,07,20,10,35,20.00
2016,07,20,10,36,19.90
2016,07,20,10,37,19.90
2016,07,20,10,38,19.80
2016,07,20,10,39,19.80
2016,07,20,10,40,19.70
2016,07,20,10,41,19.70
2016,07,20,10,42,19.70
2016,07,20,10,43,19.70
2016,07,20,10,44,19.70
2016,07,20,10,45,19.80
2016,07,20,10,46,19.80
2016,07,20,10,47,19.80
2016,07,20,10,48,19.80
2016,07,20,10,49,19.90
2016,07,20,10,50,20.00
2016,07,20,10,51,20.00
2016,07,20,10,52,20.10
2016,07,20,10,53,20.20
2016,07,20,10,54,20.20
2016,07,20,10,55,20.20
2016,07,20,10,56,20.30
2016,07,20,10,57,20.30
2016,07,20,10,58,20.30
2016,07,20,10,59,20.20
2016,07,20,11,00,20.10
2016,07,20,11,01,20.10
2016,07,20,11,02,20.10
2016,07,20,11,03,20.10
2016,07,20,11,04,20.20
2016,07,20,11,05,20.30
2016,07,20,11,06,20.40
2016,07,20,11,07,20.40
2016,07,20,11,08,20.40
2016,07,20,11,09,20.30
2016,07,20,11,10,20.20
2016,07,20,11,11,20.20
2016,07,20,11,12,20.20
2016,07,20,11,13,20.10
2016,07,20,11,14,20.10
2016,07,20,11,15,20.10
2016,07,20,11,16,20.10
2016,07,20,11,17,20.10
2016,07,20,11,18,20.10
2016,07,20,11,19,20.10
2016,07,20,11,20,20.10
2016,07,20,11,21,20.20
2016,07,20,11,22,20.30
2016,07,20,11,23,20.30
2016,07,20,11,24,20.40
2016,07,20,11,25,20.50
2016,07,20,11,26,20.40
2016,07,20,11,27,20.40
2016,07,20,11,28,20.50
2016,07,20,11,29,20.50
2016,07,20,11,30,20.60
2016,07,20,11,31,20.70
2016,07,20,11,32,20.70
2016,07,20,11,33,20.70
2016,07,20,11,34,20.70
2016,07,20,11,35,20.70
2016,07,20,11,36,20.70
2016,07,20,11,37,20.70
2016,07,20,11,38,20.70
2016,07,20,11,39,20.70
2016,07,20,11,40,20.70
2016,07,20,11,41,20.80
2016,07,20,11,42,20.80
2016,07,20,11,43,20.90
2016,07,20,11,44,20.90
2016,07,20,11,45,21.00
2016,07,20,11,46,21.10
2016,07,20,11,47,21.10
2016,07,20,11,48,21.10
2016,07,20,11,49,21.10
2016,07,20,11,50,21.10
2016,07,20,11,51,21.20
2016,07,20,11,52,21.20
2016,07,20,11,53,21.30
2016,07,20,11,54,21.30
2016,07,20,11,55,21.30
2016,07,20,11,56,21.30
2016,07,20,11,57,21.40
2016,07,20,11,58,21.40
2016,07,20,11,59,21.50
2016,07,20,12,00,21.60
2016,07,20,12,01,21.60
2016,07,20,12,02,21.50
2016,07,20,12,03,21.60
2016,07,20,12,04,21.50
2016,07,20,12,05,21.50
2016,07,20,12,06,21.50
2016,07,20,12,07,21.50
2016,07,20,12,08,21.50
2016,07,20,12,09,21.50
2016,07,20,12,10,21.40
2016,07,20,12,11,21.30
2016,07,20,12,12,21.30
2016,07,20,12,13,21.40
2016,07,20,12,14,21.40
2016,07,20,12,15,21.30
2016,07,20,12,16,21.30
2016,07,20,12,17,21.30
2016,07,20,12,18,21.30
2016,07,20,12,19,21.30
2016,07,20,12,20,21.30
2016,07,20,12,21,21.30
2016,07,20,12,22,21.40
2016,07,20,12,23,21.40
2016,07,20,12,24,21.40
2016,07,20,12,25,21.50
2016,07,20,12,26,21.50
2016,07,20,12,27,21.40
2016,07,20,12,28,21.40
2016,07,20,12,29,21.30
2016,07,20,12,30,21.30
2016,07,20,12,31,21.30
2016,07,20,12,32,21.30
2016,07,20,12,33,21.20
2016,07,20,12,34,21.20
2016,07,20,12,35,21.20
2016,07,20,12,36,21.20
2016,07,20,12,37,21.30
2016,07,20,12,38,21.30
2016,07,20,12,39,21.40
2016,07,20,12,40,21.40
2016,07,20,12,41,21.40
2016,07,20,12,42,21.50
2016,07,20,12,43,21.60
2016,07,20,12,44,21.50
2016,07,20,12,45,21.40
2016,07,20,12,46,21.40
2016,07,20,12,47,21.30
2016,07,20,12,48,21.30
2016,07,20,12,49,21.30
2016,07,20,12,50,21.40
2016,07,20,12,51,21.50
2016,07,20,12,52,21.50
2016,07,20,12,53,21.60
2016,07,20,12,54,21.60
2016,07,20,12,55,21.60
2016,07,20,12,56,21.60
2016,07,20,12,57,21.60
2016,07,20,12,58,21.60
2016,07,20,12,59,21.70
2016,07,20,13,00,21.70
2016,07,20,13,01,21.70
2016,07,20,13,02,21.70
2016,07,20,13,03,21.70
2016,07,20,13,04,21.70
2016,07,20,13,05,21.80
2016,07,20,13,06,21.80
2016,07,20,13,07,21.80
2016,07,20,13,08,21.80
2016,07,20,13,09,21.70
2016,07,20,13,10,21.70
2016,07,20,13,11,21.70
2016,07,20,13,12,21.80
2016,07,20,13,13,21.80
2016,07,20,13,14,21.90
2016,07,20,13,15,21.90
2016,07,20,13,16,21.90
2016,07,20,13,17,21.80
2016,07,20,13,18,21.80
2016,07,20,13,19,21.80
2016,07,20,13,20,21.80
2016,07,20,13,21,21.90
2016,07,20,13,22,21.90
2016,07,20,13,23,21.90
2016,07,20,13,24,21.90
2016,07,20,13,25,21.90
2016,07,20,13,26,21.90
2016,07,20,13,27,21.90
2016,07,20,13,28,21.90
2016,07,20,13,29,21.80
2016,07,20,13,30,21.80
2016,07,20,13,31,21.80
2016,07,20,13,32,21.80
2016,07,20,13,33,21.80
2016,07,20,13,34,21.80
2016,07,20,13,35,21.80
2016,07,20,13,36,21.70
2016,07,20,13,37,21.70
2016,07,20,13,38,21.70
2016,07,20,13,39,21.70
2016,07,20,13,40,21.70
2016,07,20,13,41,21.80
2016,07,20,13,42,21.90
2016,07,20,13,43,21.90
2016,07,20,13,44,21.90
2016,07,20,13,45,21.90
2016,07,20,13,46,21.80
2016,07,20,13,47,21.70
2016,07,20,13,48,21.70
2016,07,20,13,49,21.70
2016,07,20,13,50,21.60
2016,07,20,13,51,21.60
2016,07,20,13,52,21.60
2016,07,20,13,53,21.60
2016,07,20,13,54,21.60
2016,07,20,13,55,21.60
2016,07,20,13,56,21.60
2016,07,20,13,57,21.70
2016,07,20,13,58,21.70
2016,07,20,13,59,21.80
2016,07,20,14,00,21.80
2016,07,20,14,01,21.70
2016,07,20,14,02,21.70
2016,07,20,14,03,21.70
2016,07,20,14,04,21.80
2016,07,20,14,05,21.90
2016,07,20,14,06,21.90
2016,07,20,14,07,21.90
2016,07,20,14,08,22.00
2016,07,20,14,09,22.00
2016,07,20,14,10,22.10
2016,07,20,14,11,22.00
2016,07,20,14,12,22.00
2016,07,20,14,13,22.00
2016,07,20,14,14,22.00
2016,07,20,14,15,22.00
2016,07,20,14,16,22.10
2016,07,20,14,17,22.10
2016,07,20,14,18,22.20
2016,07,20,14,19,22.20
2016,07,20,14,20,22.20
2016,07,20,14,21,22.20
2016,07,20,14,22,22.30
2016,07,20,14,23,22.40
2016,07,20,14,24,22.50
2016,07,20,14,25,22.60
2016,07,20,14,26,22.60
2016,07,20,14,27,22.60
2016,07,20,14,28,22.70
2016,07,20,14,29,22.70
2016,07,20,14,30,22.70
2016,07,20,14,31,22.60
2016,07,20,14,32,22.50
2016,07,20,14,33,22.40
2016,07,20,14,34,22.30
2016,07,20,14,35,22.30
2016,07,20,14,36,22.20
2016,07,20,14,37,22.30
2016,07,20,14,38,22.30
2016,07,20,14,39,22.40
2016,07,20,14,40,22.40
2016,07,20,14,41,22.50
2016,07,20,14,42,22.60
2016,07,20,14,43,22.60
2016,07,20,14,44,22.50
2016,07,20,14,45,22.50
2016,07,20,14,46,22.50
2016,07,20,14,47,22.50
2016,07,20,14,48,22.60
2016,07,20,14,49,22.60
2016,07,20,14,50,22.70
2016,07,20,14,51,22.70
2016,07,20,14,52,22.80
2016,07,20,14,53,22.80
2016,07,20,14,54,22.80
2016,07,20,14,55,22.80
2016,07,20,14,56,22.90
2016,07,20,14,57,22.90
2016,07,20,14,58,22.90
2016,07,20,14,59,22.90
2016,07,20,15,00,22.80
2016,07,20,15,01,22.70
2016,07,20,15,02,22.60
2016,07,20,15,03,22.60
2016,07,20,15,04,22.60
2016,07,20,15,05,22.70
2016,07,20,15,06,22.70
2016,07,20,15,07,22.70
2016,07,20,15,08,22.70
2016,07,20,15,09,22.60
2016,07,20,15,10,22.50
2016,07,20,15,11,22.30
2016,07,20,15,12,22.20
2016,07,20,15,13,22.20
2016,07,20,15,14,22.20
2016,07,20,15,15,22.20
2016,07,20,15,16,22.10
2016,07,20,15,17,22.10
2016,07,20,15,18,21.90
2016,07,20,15,19,21.80
2016,07,20,15,20,21.80
2016,07,20,15,21,21.80
2016,07,20,15,22,21.80
2016,07,20,15,23,21.70
2016,07,20,15,24,21.70
2016,07,20,15,25,21.80
2016,07,20,15,26,21.80
2016,07,20,15,27,21.80
2016,07,20,15,28,21.80
2016,07,20,15,29,21.80
2016,07,20,15,30,21.90
2016,07,20,15,31,22.00
2016,07,20,15,32,22.10
2016,07,20,15,33,22.10
2016,07,20,15,34,22.10
2016,07,20,15,35,22.20
2016,07,20,15,36,22.20
2016,07,20,15,37,22.30
2016,07,20,15,38,22.40
2016,07,20,15,39,22.60
2016,07,20,15,40,22.60
2016,07,20,15,41,22.70
2016,07,20,15,42,22.60
2016,07,20,15,43,22.50
2016,07,20,15,44,22.40
2016,07,20,15,45,22.40
2016,07,20,15,46,22.40
2016,07,20,15,47,22.40
2016,07,20,15,48,22.50
2016,07,20,15,49,22.50
2016,07,20,15,50,22.40
2016,07,20,15,51,22.50
2016,07,20,15,52,22.60
2016,07,20,15,53,22.60
2016,07,20,15,54,22.50
2016,07,20,15,55,22.40
2016,07,20,15,56,22.30
2016,07,20,15,57,22.30
2016,07,20,15,58,22.30
2016,07,20,15,59,22.20
2016,07,20,16,00,22.20
2016,07,20,16,01,22.20
2016,07,20,16,02,22.10
2016,07,20,16,03,22.10
2016,07,20,16,04,22.10
2016,07,20,16,05,22.00
2016,07,20,16,06,22.10
2016,07,20,16,07,22.10
2016,07,20,16,08,22.00
2016,07,20,16,09,22.00
2016,07,20,16,10,22.00
2016,07,20,16,11,22.00
2016,07,20,16,12,21.90
2016,07,20,16,13,21.90
2016,07,20,16,14,21.90
2016,07,20,16,15,21.90
2016,07,20,16,16,22.00
2016,07,20,16,17,22.00
2016,07,20,16,18,22.10
2016,07,20,16,19,22.00
2016,07,20,16,20,22.00
2016,07,20,16,21,22.00
2016,07,20,16,22,22.00
2016,07,20,16,23,22.00
2016,07,20,16,24,21.90
2016,07,20,16,25,21.90
2016,07,20,16,26,21.80
2016,07,20,16,27,21.80
2016,07,20,16,28,21.80
2016,07,20,16,29,21.70
2016,07,20,16,30,21.60
2016,07,20,16,31,21.50
2016,07,20,16,32,21.40
2016,07,20,16,33,21.40
2016,07,20,16,34,21.30
2016,07,20,16,35,21.30
2016,07,20,16,36,21.40
2016,07,20,16,37,21.40
2016,07,20,16,38,21.40
2016,07,20,16,39,21.40
2016,07,20,16,40,21.40
2016,07,20,16,41,21.30
2016,07,20,16,42,21.30
2016,07,20,16,43,21.30
2016,07,20,16,44,21.30
2016,07,20,16,45,21.30
2016,07,20,16,46,21.20
2016,07,20,16,47,21.20
2016,07,20,16,48,21.20
2016,07,20,16,49,21.20
2016,07,20,16,50,21.30
2016,07,20,16,51,21.30
2016,07,20,16,52,21.40
2016,07,20,16,53,21.50
2016,07,20,16,54,21.50
2016,07,20,16,55,21.60
2016,07,20,16,56,21.70
2016,07,20,16,57,21.70
2016,07,20,16,58,21.70
2016,07,20,16,59,21.70
2016,07,20,17,00,21.80
2016,07,20,17,01,21.80
2016,07,20,17,02,21.80
2016,07,20,17,03,21.80
2016,07,20,17,04,21.90
2016,07,20,17,05,21.90
2016,07,20,17,06,22.00
2016,07,20,17,07,22.10
2016,07,20,17,08,22.20
2016,07,20,17,09,22.20
2016,07,20,17,10,22.30
2016,07,20,17,11,22.30
2016,07,20,17,12,22.30
2016,07,20,17,13,22.40
2016,07,20,17,14,22.40
2016,07,20,17,15,22.40
2016,07,20,17,16,22.40
2016,07,20,17,17,22.40
2016,07,20,17,18,22.40
2016,07,20,17,19,22.40